Probability
0 0 0 0 0 0 0 0 0 0 0 0 0 0 0 0 0 0 0 0 0 0 0 0 0 0 0 0 0 0 0 0 0 0 0 0 0 0 0 0 0 3 6 3
0 0 0 0 0 0 0 0 0 0 0 0 0 0 0 0 0 0 0 0 0 0 0 0 0 0 0 0 0 0 0 0 0 0 0 0 0 0 0 0 0 0 0 0
0 0 0 0 0 0 0 0 0 0 0 0 0 0 0 0 0 0 0 0 0 0 0 0 0 0 0 0 0 0 0 0 0 0 0 0 0 0 0 0 0 0 0 3
0 0 0 0 0 0 0 0 0 0 0 0 0 0 0 0 0 0 0 0 0 0 0 0 0 0 0 0 0 0 0 0 0 0 0 0 0 0 0 0 0 0 0 3
0 0 0 0 0 0 0 0 0 0 0 0 0 0 0 0 0 0 0 0 0 0 0 0 0 0 0 0 0 0 0 0 0 0 0 0 0 0 0 0 0 0 0 0
0 0 0 0 0 0 0 0 0 0 0 0 0 0 0 0 0 0 0 0 0 0 0 0 0 0 0 0 0 0 0 0 0 0 0 0 0 0 0 0 0 0 0 0
0 0 0 0 0 0 0 0 0 0 0 0 0 0 0 0 0 0 0 0 0 0 0 0 0 0 0 0 0 0 0 0 0 0 0 0 0 0 0 0 0 0 0 0
0 0 0 0 0 0 0 0 0 0 0 0 0 0 0 0 0 0 0 0 0 0 0 0 0 0 0 0 0 0 0 0 0 0 0 0 0 0 0 0 0 0 0 0
0 0 0 0 0 0 0 0 0 0 0 0 0 0 0 0 0 0 0 0 0 0 0 0 0 0 0 0 0 0 0 0 0 0 0 0 0 0 0 0 0 0 0 0
0 0 0 0 0 0 0 0 0 0 0 0 0 0 0 0 0 0 0 0 0 0 0 0 0 0 0 0 0 0 0 0 0 0 0 0 0 0 0 0 0 0 0 0
0 0 0 0 0 0 0 0 0 0 0 0 0 0 0 0 0 0 0 0 0 0 0 0 0 0 0 0 0 0 0 0 0 0 0 0 0 0 0 0 0 0 0 0
0 0 0 0 0 0 0 0 0 0 0 0 0 0 0 0 0 0 0 0 0 0 0 0 0 0 0 0 0 0 0 0 0 0 0 0 0 0 0 0 0 0 0 0
0 0 0 0 0 0 0 0 0 0 0 0 0 0 0 0 0 0 0 0 0 0 0 0 0 0 0 0 0 0 0 0 0 0 0 0 0 0 0 0 0 0 0 0
0 0 0 0 0 0 0 0 0 0 0 0 0 0 0 0 0 0 0 0 0 0 0 0 0 0 0 0 0 0 0 0 0 0 0 0 0 0 0 0 0 0 0 0
0 0 0 0 0 0 0 0 0 0 0 0 0 0 0 0 0 0 0 0 0 0 0 0 0 0 0 0 0 0 0 0 0 0 0 0 0 0 0 0 0 0 0 0
0 0 0 0 0 0 0 0 0 0 0 0 0 0 0 0 0 0 0 0 0 0 0 0 0 0 0 0 0 0 0 0 0 0 0 0 0 0 0 0 0 0 0 0
0 0 0 0 0 0 0 0 0 0 0 0 0 0 0 0 0 0 0 0 0 0 0 0 0 0 0 0 0 0 0 0 0 0 0 0 0 0 0 0 0 0 0 0
0 0 0 0 0 0 0 0 0 0 0 0 0 0 0 0 0 0 0 0 0 0 0 0 0 0 0 0 0 0 0 0 0 0 0 0 0 0 0 0 0 0 0 0
0 0 0 0 0 0 0 0 0 0 0 0 0 0 0 0 0 0 0 0 0 0 0 0 0 0 0 0 0 0 0 0 0 0 0 0 0 0 0 0 0 0 0 0
0 0 0 0 0 0 0 0 0 0 0 0 0 0 0 0 0 0 0 0 0 0 0 0 0 0 0 0 0 0 0 0 0 0 0 0 0 0 0 0 0 0 0 0
0 0 0 0 0 0 0 0 0 0 0 0 0 0 0 0 0 0 0 0 0 0 0 0 0 0 0 0 0 0 0 0 0 0 0 0 0 0 0 0 0 0 0 0
0 0 0 0 0 0 0 0 0 0 0 0 0 0 0 0 0 0 0 0 0 0 0 0 0 0 0 0 0 0 0 0 0 0 0 0 0 0 0 0 0 0 0 0
0 0 0 0 0 0 0 0 0 0 0 0 0 0 0 0 0 0 0 0 0 0 0 0 0 0 0 0 0 0 0 0 0 0 0 0 0 0 0 0 0 0 0 0
0 0 0 0 0 0 0 0 0 0 0 0 0 0 0 0 0 0 0 0 0 0 0 0 0 0 0 0 0 0 0 0 0 0 0 0 0 0 0 0 0 0 0 0
0 0 0 0 0 0 0 0 0 0 0 0 0 0 0 0 0 0 0 0 0 0 0 0 0 0 0 0 0 0 0 0 0 0 0 0 0 0 0 0 0 0 0 0
0 0 0 0 0 0 0 0 0 0 0 0 0 0 0 0 0 0 0 0 0 0 0 0 0 0 0 0 0 0 0 0 0 0 0 0 0 0 0 0 0 0 0 0
Height
5907 5908 5907 5906 5904 5902 5899 5896 5892 5889 5886 5883 5880 5876 5873 5869 5864 5860 5856 5852 5848 5844 5839 5835 5832 5828 5826 5823 5821 5818 5817 5816 5815 5815 5815 5815 5815 5816 5817 5819 5821 5824 5827 5829
5905 5905 5904 5902 5900 5898 5895 5892 5889 5886 5883 5880 5876 5873 5869 5865 5861 5857 5852 5848 5844 5839 5834 5830 5825 5822 5819 5816 5814 5811 5809 5807 5806 5805 5805 5805 5805 5805 5806 5807 5809 5812 5815 5818
5902 5902 5900 5899 5897 5894 5892 5889 5886 5883 5879 5875 5873 5870 5866 5862 5858 5854 5849 5844 5840 5835 5830 5826 5821 5817 5814 5811 5808 5805 5803 5801 5799 5797 5796 5795 5795 5795 5795 5796 5798 5800 5803 5806
5899 5898 5897 5896 5894 5891 5889 5885 5882 5879 5875 5872 5870 5867 5863 5859 5855 5850 5846 5841 5837 5832 5828 5823 5818 5814 5810 5807 5803 5800 5797 5795 5792 5790 5789 5787 5787 5786 5786 5786 5787 5789 5792 5795
5896 5895 5894 5893 5891 5889 5886 5883 5879 5876 5873 5870 5867 5865 5862 5857 5852 5848 5844 5839 5835 5831 5826 5822 5817 5813 5808 5804 5801 5797 5793 5790 5787 5785 5782 5781 5779 5778 5778 5778 5778 5780 5781 5784
5894 5894 5892 5891 5888 5886 5883 5881 5877 5874 5872 5869 5866 5863 5860 5855 5851 5847 5843 5839 5834 5830 5826 5821 5816 5812 5807 5803 5799 5795 5791 5787 5783 5780 5778 5775 5773 5771 5770 5770 5770 5771 5772 5775
5892 5892 5890 5889 5887 5884 5882 5880 5877 5873 5871 5868 5865 5861 5859 5855 5851 5848 5844 5839 5835 5831 5826 5822 5817 5812 5807 5802 5798 5793 5789 5785 5781 5777 5774 5771 5768 5766 5764 5764 5764 5764 5765 5766
5891 5891 5890 5888 5886 5883 5881 5879 5877 5874 5870 5867 5864 5861 5859 5855 5852 5848 5844 5840 5836 5832 5827 5822 5817 5813 5808 5803 5798 5793 5788 5784 5780 5776 5772 5769 5766 5763 5761 5759 5759 5758 5758 5759
5890 5890 5889 5887 5884 5882 5880 5877 5875 5873 5870 5867 5865 5862 5859 5856 5852 5849 5845 5841 5837 5833 5828 5823 5819 5814 5809 5804 5799 5793 5788 5784 5780 5775 5772 5768 5764 5761 5758 5757 5755 5754 5754 5754
5889 5889 5888 5886 5884 5882 5880 5877 5875 5873 5870 5868 5866 5863 5860 5856 5853 5850 5846 5842 5838 5834 5829 5825 5820 5815 5810 5805 5800 5795 5790 5785 5780 5776 5772 5768 5764 5761 5757 5755 5753 5752 5751 5750
5889 5888 5888 5886 5884 5882 5880 5878 5876 5873 5871 5869 5866 5866 5861 5858 5854 5851 5847 5843 5839 5835 5831 5826 5821 5816 5812 5807 5802 5797 5792 5787 5782 5778 5773 5769 5765 5761 5758 5755 5753 5751 5749 5748
5889 5888 5887 5887 5885 5883 5881 5879 5877 5875 5873 5870 5868 5869 5862 5859 5855 5852 5848 5844 5840 5836 5832 5828 5823 5818 5813 5809 5804 5799 5794 5789 5784 5780 5775 5771 5767 5763 5759 5756 5753 5751 5749 5747
5889 5889 5888 5888 5888 5885 5881 5879 5878 5876 5874 5871 5869 5869 5863 5860 5856 5853 5850 5846 5842 5838 5834 5829 5825 5820 5816 5811 5806 5801 5796 5791 5787 5782 5778 5773 5769 5765 5761 5757 5754 5752 5749 5747
5889 5889 5890 5889 5887 5884 5882 5881 5879 5877 5874 5872 5870 5868 5864 5861 5858 5854 5851 5847 5843 5839 5835 5831 5827 5822 5818 5813 5808 5803 5798 5794 5789 5785 5780 5776 5771 5767 5763 5759 5756 5753 5750 5747
5890 5890 5889 5888 5887 5885 5883 5881 5879 5877 5876 5873 5871 5868 5865 5862 5859 5856 5852 5848 5845 5841 5837 5833 5828 5824 5820 5815 5811 5806 5801 5796 5791 5787 5782 5778 5773 5769 5765 5761 5757 5754 5751 5748
5890 5890 5889 5889 5888 5886 5884 5882 5880 5878 5876 5874 5872 5869 5866 5863 5860 5857 5853 5850 5846 5842 5839 5834 5830 5826 5822 5818 5813 5808 5803 5798 5794 5789 5785 5780 5775 5771 5766 5762 5759 5755 5752 5748
5890 5890 5890 5889 5888 5887 5885 5883 5881 5879 5877 5875 5872 5871 5867 5864 5861 5858 5854 5851 5847 5844 5840 5836 5832 5828 5824 5820 5815 5811 5806 5801 5796 5792 5787 5782 5777 5773 5768 5764 5760 5756 5752 5748
5890 5890 5889 5889 5888 5887 5888 5883 5881 5879 5877 5875 5873 5870 5868 5865 5862 5858 5855 5852 5848 5845 5841 5837 5834 5830 5826 5822 5817 5813 5808 5804 5799 5794 5789 5784 5779 5775 5770 5765 5761 5756 5752 5748
5889 5889 5889 5888 5887 5886 5886 5883 5881 5879 5878 5875 5873 5871 5868 5865 5862 5859 5856 5853 5850 5846 5843 5839 5835 5831 5827 5823 5819 5815 5811 5806 5802 5797 5792 5787 5782 5777 5772 5767 5762 5757 5752 5748
5888 5888 5888 5887 5886 5885 5885 5883 5880 5880 5877 5875 5873 5871 5868 5865 5863 5861 5857 5854 5851 5847 5844 5840 5836 5833 5829 5825 5821 5817 5813 5809 5804 5799 5794 5789 5784 5779 5773 5768 5763 5758 5753 5748
5886 5886 5885 5885 5884 5883 5883 5881 5880 5880 5878 5874 5872 5870 5868 5865 5863 5861 5857 5854 5851 5848 5845 5841 5837 5834 5830 5827 5823 5819 5815 5810 5806 5801 5796 5791 5786 5781 5776 5770 5765 5759 5754 5748
5883 5883 5882 5882 5881 5882 5880 5878 5878 5877 5875 5873 5871 5869 5867 5865 5862 5860 5857 5854 5852 5849 5845 5842 5838 5835 5831 5828 5824 5820 5816 5812 5808 5803 5799 5794 5789 5783 5778 5772 5767 5761 5755 5750
5879 5879 5878 5879 5880 5878 5876 5875 5875 5873 5872 5871 5869 5868 5866 5864 5861 5859 5856 5854 5851 5848 5845 5842 5838 5835 5832 5829 5825 5821 5818 5814 5809 5805 5801 5796 5791 5786 5781 5775 5769 5763 5758 5752
5874 5874 5874 5873 5873 5873 5872 5871 5870 5869 5869 5867 5866 5865 5863 5861 5860 5857 5855 5852 5850 5847 5844 5841 5838 5835 5832 5829 5826 5822 5819 5815 5811 5807 5802 5798 5793 5788 5783 5778 5772 5767 5762 5756
5868 5868 5868 5868 5868 5868 5867 5866 5866 5865 5864 5863 5862 5860 5859 5858 5856 5854 5852 5850 5847 5845 5842 5840 5837 5834 5831 5828 5825 5822 5819 5815 5812 5808 5804 5800 5795 5791 5786 5781 5776 5771 5766 5760
5862 5863 5864 5864 5864 5863 5863 5862 5861 5860 5859 5858 5857 5855 5854 5853 5852 5850 5848 5846 5844 5842 5840 5838 5835 5833 5830 5827 5824 5821 5818 5815 5812 5808 5805 5801 5797 5793 5789 5784 5779 5774 5769 5765
Wind_Speed
17 16 17 18 19 20 21 22 24 24 25 25 25 25 24 23 23 24 25 25 26 27 28 28 27 27 27 27 28 29 30 31 32 34 35 36 38 39 39 40 39 39 40 41
14 14 15 16 17 19 20 21 22 23 23 24 23 21 19 19 20 21 22 22 23 24 24 25 24 24 24 24 24 25 25 26 28 29 31 32 34 36 37 37 38 38 40 40
12 12 13 14 15 17 18 20 21 22 22 21 19 17 17 16 16 18 19 20 21 21 21 22 22 21 21 21 22 22 22 23 24 26 27 28 30 31 33 35 36 37 39 39
9 10 11 12 14 15 16 18 19 19 18 17 17 15 14 15 16 17 18 19 20 20 20 20 20 19 19 19 18 19 19 20 21 22 22 23 24 26 29 31 32 34 35 37
7 9 10 11 12 13 14 15 16 16 15 14 13 13 14 16 17 18 19 19 19 19 19 19 19 18 18 17 17 17 17 18 18 18 18 19 21 23 24 26 28 30 32 34
6 7 8 9 9 10 12 13 13 13 13 11 11 12 15 17 18 19 19 19 19 19 20 20 20 19 18 18 18 18 18 17 16 16 16 17 18 19 20 21 23 25 27 29
3 5 5 6 7 9 11 12 12 11 10 9 10 12 15 16 17 18 19 19 19 19 20 20 20 20 20 19 19 19 18 18 16 15 14 14 14 15 16 17 18 20 23 26
1 1 2 4 7 8 10 11 11 11 11 11 11 12 14 15 16 17 18 18 19 19 20 20 20 21 21 21 20 19 19 18 16 15 14 13 13 12 11 12 13 15 17 20
4 3 3 5 7 9 10 11 11 12 12 12 12 12 13 15 15 16 17 18 19 19 20 21 21 21 21 22 21 21 20 19 18 16 15 14 13 12 10 9 9 11 12 14
6 5 6 6 9 10 11 11 12 13 13 13 12 13 14 15 15 16 17 18 18 19 21 21 21 21 21 22 22 22 22 21 20 19 17 16 15 13 11 8 7 8 9 10
7 7 7 7 9 10 11 12 13 13 14 13 13 14 15 15 16 16 17 18 19 19 20 21 21 21 22 22 22 23 22 22 21 21 19 18 16 15 14 11 9 7 6 8
8 8 7 7 8 10 11 12 12 13 13 13 13 14 15 16 16 17 18 19 19 20 20 20 21 22 23 23 23 23 23 22 22 21 21 20 19 17 15 13 11 10 8 7
8 8 7 7 9 10 11 11 12 12 12 12 12 13 14 15 17 18 18 19 20 20 20 20 20 21 22 23 23 23 23 23 22 22 21 21 20 19 17 15 13 11 10 8
8 7 7 7 8 9 10 10 11 11 11 11 12 13 13 15 16 17 18 19 20 20 20 20 20 21 22 23 23 23 24 23 22 22 22 22 21 20 18 16 15 13 12 10
7 6 6 6 7 8 8 9 10 10 10 11 11 12 13 14 14 16 17 18 19 20 20 20 20 21 22 23 23 24 24 24 23 23 22 22 22 21 19 17 16 15 13 12
5 5 5 4 5 5 7 8 8 9 9 10 11 12 13 13 14 15 17 18 19 19 19 20 20 21 21 22 23 24 25 24 24 23 23 23 23 22 20 19 18 16 15 13
4 4 3 3 3 5 5 7 7 8 9 10 10 11 12 13 14 15 16 17 18 18 19 19 20 20 21 21 22 24 24 25 25 24 24 24 23 23 22 21 20 18 17 16
2 1 2 2 2 3 5 6 7 8 8 9 10 11 11 12 14 15 16 17 17 18 18 19 19 19 20 21 22 22 24 24 25 25 25 25 24 24 23 23 21 20 19 18
1 1 1 1 2 3 4 5 6 7 8 9 9 10 11 12 13 14 15 16 17 17 17 18 19 19 20 20 21 22 22 24 25 26 26 26 25 25 24 24 23 22 21 20
3 3 2 2 3 3 4 4 5 6 7 8 9 10 10 11 12 13 14 15 16 16 16 17 18 19 19 20 20 21 21 23 24 25 26 26 26 26 25 25 24 24 23 22
6 5 5 5 5 5 5 5 5 6 7 8 9 9 10 11 11 12 12 13 14 15 16 16 17 17 18 19 19 20 21 22 23 24 25 26 26 26 26 26 25 25 24 24
9 9 8 8 8 8 8 8 8 8 8 9 9 9 10 10 11 11 12 13 13 14 15 15 16 16 17 18 18 19 19 20 21 23 24 25 26 26 26 26 26 26 25 25
13 13 12 12 11 11 11 11 11 10 10 11 11 11 11 11 11 12 12 13 13 14 14 15 15 15 16 16 17 18 18 19 20 21 22 24 25 25 26 26 26 26 26 26
16 17 16 16 15 13 14 14 14 14 13 13 13 13 13 13 13 13 14 14 14 14 14 14 14 14 15 15 16 16 17 18 18 19 20 22 23 24 25 25 26 26 26 26
20 19 19 19 18 16 16 17 17 17 17 16 16 16 16 15 15 15 15 15 15 15 15 15 15 15 15 15 15 15 16 16 17 18 18 19 21 22 23 24 24 24 25 25
23 21 20 20 19 19 19 19 19 20 20 20 20 19 19 19 18 18 18 17 17 17 17 16 16 15 15 15 15 15 15 15 16 16 17 17 18 19 20 21 22 23 23 23
Wind_Direction
256 268 280 287 295 301 306 310 312 314 315 315 315 315 317 318 316 315 315 314 312 310 308 306 302 297 293 290 288 284 280 276 273 271 269 267 266 265 264 262 259 257 255 254
256 269 280 290 298 303 308 309 310 310 311 313 315 317 321 321 319 320 320 319 318 317 316 315 312 307 302 298 295 292 287 283 278 274 271 269 267 266 264 261 258 256 255 253
260 271 282 294 300 305 308 309 311 313 315 318 321 324 329 329 327 330 330 330 331 331 328 326 323 318 313 309 305 301 296 291 285 279 275 272 269 266 264 262 260 257 254 252
262 278 291 300 304 309 312 314 316 319 320 323 327 334 343 345 346 347 345 343 343 342 341 339 336 332 328 324 319 313 308 302 294 287 281 277 273 269 266 263 261 257 254 251
264 282 295 303 310 317 321 323 326 327 328 329 336 345 356 359 359 358 356 355 354 353 352 351 350 348 345 342 337 331 325 318 309 298 291 285 281 276 270 266 262 258 254 251
266 285 299 311 323 332 337 339 339 339 340 339 350 359 9 11 9 7 6 4 3 1 1 360 359 359 356 352 347 342 337 333 326 317 307 299 292 284 276 269 263 259 255 251
278 300 315 330 341 349 351 351 352 352 353 3 9 15 17 14 13 11 10 10 10 10 9 8 6 5 3 0 358 355 351 346 341 334 326 316 308 298 284 272 265 261 256 252
199 278 341 353 360 4 6 8 11 13 18 23 23 23 21 19 15 13 14 17 16 15 13 12 12 10 9 8 6 3 0 359 356 351 345 340 331 319 300 282 271 264 259 253
136 113 48 26 21 21 22 26 29 31 33 35 33 33 30 23 19 19 20 20 19 17 15 14 14 14 14 14 14 11 10 9 8 6 2 359 353 345 325 307 292 275 265 256
116 88 58 43 39 38 37 38 39 40 38 39 40 37 32 26 25 24 23 21 18 16 15 14 15 15 16 17 18 18 18 18 17 15 13 9 7 5 356 339 319 296 276 261
106 87 66 52 48 50 51 50 51 51 48 45 42 39 35 32 30 28 25 21 19 18 18 18 19 19 19 19 19 19 20 21 22 21 19 17 15 13 13 9 356 337 306 284
107 92 78 65 61 63 62 59 56 53 50 47 42 40 35 33 31 29 26 24 22 21 20 20 21 21 21 21 22 22 22 24 25 24 24 22 21 19 17 14 8 1 349 321
110 99 89 77 71 69 65 61 58 55 51 46 40 37 33 33 32 30 28 26 24 22 21 22 22 22 22 22 22 23 24 24 24 24 23 23 22 21 20 18 13 8 1 354
113 105 91 79 73 70 65 61 58 55 50 45 39 34 32 32 30 29 27 25 23 22 22 23 23 23 22 22 22 23 24 24 23 22 22 22 21 20 19 18 16 13 8 4
112 108 95 81 71 68 65 61 58 53 46 40 34 31 30 28 26 25 24 23 22 22 23 24 24 24 23 23 23 23 24 24 24 23 22 21 20 20 20 19 18 14 11 6
109 102 93 78 63 56 54 53 50 45 40 36 33 31 28 26 24 23 23 22 22 22 24 24 25 25 24 24 24 24 25 24 23 22 22 21 21 20 20 20 18 16 11 5
112 98 88 66 40 33 35 37 37 34 32 29 27 25 24 22 21 21 22 22 22 22 23 24 25 26 25 24 24 25 25 24 23 22 22 21 20 20 20 18 15 11 8 4
122 87 71 56 30 14 23 25 28 28 27 25 23 20 18 18 21 23 23 22 23 23 23 24 25 25 25 24 24 24 24 24 23 23 22 21 21 20 19 17 15 12 8 5
240 256 287 325 340 355 3 6 11 17 20 19 18 15 13 14 18 20 20 21 21 21 22 24 25 24 24 24 24 23 23 22 22 22 22 21 20 19 18 17 16 13 10 6
260 268 275 284 298 315 336 343 350 359 2 4 6 6 5 6 9 12 15 17 17 17 18 20 22 22 21 22 22 21 21 20 20 20 20 20 20 19 19 18 17 15 13 9
267 270 272 275 279 287 297 308 319 329 340 343 346 349 351 354 357 1 3 5 7 9 12 14 16 17 18 18 18 18 18 18 18 18 18 19 19 19 19 18 17 16 15 13
268 270 272 274 277 279 283 287 295 303 312 320 324 329 333 335 340 345 349 352 354 357 2 5 8 10 11 12 13 13 14 15 16 16 18 18 18 18 18 18 18 18 18 17
263 264 264 265 269 275 280 285 288 291 295 299 305 311 317 320 322 327 331 335 340 345 350 354 357 0 3 5 6 7 9 10 11 13 15 16 17 17 17 18 20 21 21 22
263 263 264 266 268 272 277 280 284 288 291 293 295 298 302 305 309 313 317 321 325 329 334 340 344 347 350 353 356 358 1 3 5 7 9 12 14 15 16 18 20 23 24 24
262 263 266 270 274 275 276 278 282 285 287 288 289 290 292 294 297 301 305 308 313 317 321 325 329 332 336 340 343 347 350 354 358 1 4 6 10 13 15 17 20 23 25 26
265 267 269 271 275 277 278 279 281 282 283 284 285 286 287 288 289 291 294 297 300 303 308 312 315 318 321 326 330 335 339 344 348 352 356 360 4 8 12 15 19 22 24 26